Vacaville, CA

6:19 PM PDT on May 25, 2017 (GMT -0700)
Nut Tree

Weather History for KVCB - January, 2013

Change the Weather History Date:

Sunday, January 6, 2013

  Actual Average Record
Temperature  
Mean Temperature 44 °F -  
Max Temperature 52 °F 52 °F 68 °F (1966)
Min Temperature 35 °F 35 °F 22 °F (1949)
Degree Days  
Heating Degree Days 22    
Moisture  
Dew Point 41 °F    
Average Humidity 92    
Maximum Humidity 100    
Minimum Humidity 74    
Precipitation  
Precipitation 0.05 in - - ()
Sea Level Pressure  
Sea Level Pressure 30.16 in    
Wind  
Wind Speed 5 mph (North)    
Max Wind Speed 10 mph    
Max Gust Speed 16 mph    
Visibility 9 miles    
Events Rain    
Averages and records for this station are not official NWS values.
T = Trace of Precipitation, MM = Missing Value Source: NWS Daily Summary

Daily Weather History Graph

Daily Weather History Graph

Search for Another Location

Airport or City:

Trip Planner

Search our weather history database for the weather conditions in past years. The results will help you decide how hot, cold, wet, or windy it might be!

Date:

Astronomy

Jan. 06, 2013 Rise Set
Actual Time 7:25 AM PST 5:02 PM PST
Civil Twilight 6:55 AM PST 5:32 PM PST
Nautical Twilight 6:22 AM PST 6:05 PM PST
Astronomical Twilight 5:50 AM PST 6:37 PM PST
Moon 1:47 AM PST (1/6) 12:32 PM PST (1/6)
Length of Visible Light 10h 36m
Length of Day
9h 37m
Waning Crescent, 32% of the Moon is Illuminated
Jan 6
Waning Crescent
Jan 11
New
Jan 18
First Quarter
Jan 26
Full
Feb 3
Last Quarter

Hourly Weather History & Observations

Time (PST) Temp. Windchill Dew Point Humidity Pressure Visibility Wind Dir Wind Speed Gust Speed Precip Events Conditions
12:53 AM 43.0 °F 38.2 °F 41.0 °F 93% 30.11 in 10.0 mi North 8.1 mph - 0.01 in   Overcast
1:37 AM 42.8 °F 38.0 °F 42.8 °F 100% 30.13 in 6.0 mi North 8.1 mph - 0.01 in Rain Light Rain
1:53 AM 43.0 °F 39.5 °F 42.1 °F 97% 30.13 in 5.0 mi North 5.8 mph - 0.02 in Rain Light Rain
2:53 AM 43.0 °F 37.2 °F 41.0 °F 93% 30.12 in 9.0 mi North 10.4 mph 16.1 mph 0.01 in   Overcast
4:36 AM 42.8 °F 40.1 °F 42.8 °F 100% 30.13 in 10.0 mi North 4.6 mph - N/A   Overcast
4:53 AM 44.1 °F 39.5 °F 41.0 °F 89% 30.14 in 10.0 mi North 8.1 mph - N/A   Overcast
5:06 AM 42.8 °F 37.0 °F 42.8 °F 100% 30.13 in 10.0 mi North 10.4 mph - N/A   Overcast
5:42 AM 42.8 °F 37.0 °F 42.8 °F 100% 30.14 in 10.0 mi NNW 10.4 mph - N/A   Overcast
5:53 AM 44.1 °F 40.8 °F 42.1 °F 93% 30.14 in 10.0 mi North 5.8 mph - N/A   Overcast
6:53 AM 44.1 °F 39.5 °F 42.1 °F 93% 30.16 in 10.0 mi NNW 8.1 mph - N/A   Overcast
7:14 AM 44.6 °F 41.4 °F 42.8 °F 93% 30.16 in 6.0 mi North 5.8 mph - 0.01 in   Overcast
7:53 AM 44.1 °F 42.5 °F 42.1 °F 93% 30.16 in 8.0 mi Variable 3.5 mph - 0.01 in   Overcast
8:53 AM 44.1 °F - 42.1 °F 93% 30.18 in 9.0 mi Calm Calm - N/A   Mostly Cloudy
9:18 AM 44.6 °F 42.2 °F 42.8 °F 93% 30.20 in 10.0 mi North 4.6 mph - N/A   Overcast
9:53 AM 46.0 °F - 43.0 °F 89% 30.21 in 10.0 mi Calm Calm - N/A   Overcast
10:53 AM 46.0 °F 44.8 °F 43.0 °F 89% 30.21 in 9.0 mi NNE 3.5 mph - N/A   Overcast
11:39 AM 46.4 °F - 42.8 °F 87% 30.19 in 9.0 mi Calm Calm - N/A   Overcast
11:53 AM 46.9 °F - 43.0 °F 86% 30.18 in 10.0 mi Calm Calm - N/A   Overcast
12:53 PM 48.0 °F - 43.0 °F 83% 30.17 in 10.0 mi Calm Calm - N/A   Overcast
1:53 PM 50.0 °F - 43.0 °F 77% 30.17 in 10.0 mi NNE 3.5 mph - N/A   Mostly Cloudy
2:53 PM 52.0 °F - 44.1 °F 74% 30.16 in 10.0 mi Calm Calm - N/A   Partly Cloudy
3:53 PM 51.1 °F - 44.1 °F 77% 30.16 in 10.0 mi SW 4.6 mph - N/A   Clear
4:53 PM 48.9 °F - 43.0 °F 80% 30.16 in 10.0 mi SSW 4.6 mph - N/A   Clear
5:53 PM 44.1 °F - 42.1 °F 93% 30.16 in 10.0 mi Calm Calm - N/A   Clear
7:53 PM 37.9 °F - 37.9 °F 100% 30.18 in 7.0 mi Calm Calm - N/A   Clear
8:53 PM 36.0 °F - 36.0 °F 100% 30.19 in 7.0 mi Calm Calm - N/A   Clear
9:53 PM 36.0 °F - 36.0 °F 100% 30.18 in 8.0 mi Calm Calm - N/A   Clear
10:53 PM 35.1 °F - 34.0 °F 96% 30.19 in 6.0 mi Calm Calm - N/A   Clear
11:53 PM 36.0 °F - 35.1 °F 97% 30.18 in 7.0 mi Calm Calm - N/A   Clear